This is the latest recevied weather packets stored in our database for station/object KD0TNH-13. If no packets are shown the sender has not sent any weather packets the latest 10 day(s).
| Time | Temp. | Humidity | Pressure | Rain* | Wind** | Luminosity | Snow |
|---|---|---|---|---|---|---|---|
| 1787862943 | 21.67° C | 74% | 29.2 hPa | 0 mm | 0.89 m/s, 170° | - | - |
| 1787862642 | 22.22° C | 73% | 29.2 hPa | 0 mm | 0.89 m/s, 159° | - | - |
| 1787862349 | 22.22° C | 72% | 29.2 hPa | 0 mm | 0.45 m/s, 184° | - | - |
| 1787862041 | 22.22° C | 72% | 29.2 hPa | 0 mm | 0.45 m/s, 172° | - | - |
| 1787861740 | 22.22° C | 72% | 29.2 hPa | 0 mm | 0.45 m/s, 192° | - | - |
| 1787861439 | 22.22° C | 71% | 29.2 hPa | 0 mm | 0 m/s | - | - |
| 1787861138 | 21.67° C | 73% | 29.2 hPa | 0 mm | 0 m/s | - | - |
| 1787860838 | 21.67° C | 75% | 29.2 hPa | 0 mm | 0 m/s | - | - |
| 1787860537 | 21.67° C | 75% | 29.2 hPa | 0 mm | 0.45 m/s, 164° | - | - |
| 1787860237 | 21.67° C | 74% | 29.2 hPa | 0 mm | 0.45 m/s, 177° | - | - |
| 1787859936 | 21.67° C | 73% | 29.2 hPa | 0 mm | 0.89 m/s, 184° | - | - |
| 1787859635 | 21.11° C | 74% | 29.2 hPa | 0 mm | 0.45 m/s, 162° | - | - |
| 1787859335 | 21.11° C | 74% | 29.2 hPa | 0 mm | 0.45 m/s, 174° | - | - |
| 1787859034 | 21.11° C | 74% | 29.2 hPa | 0 mm | 0.89 m/s, 176° | - | - |
| 1787858734 | 21.67° C | 74% | 29.2 hPa | 0 mm | 0.89 m/s, 186° | - | - |
| 1787858433 | 21.11° C | 75% | 29.2 hPa | 0 mm | 0.45 m/s, 166° | - | - |
| 1787858133 | 21.11° C | 76% | 29.2 hPa | 0 mm | 0.45 m/s, 173° | - | - |
| 1787857832 | 21.11° C | 77% | 29.2 hPa | 0 mm | 0.45 m/s, 182° | - | - |
| 1787857531 | 21.11° C | 76% | 29.2 hPa | 0 mm | 0.89 m/s, 165° | - | - |
| 1787857231 | 20.56° C | 77% | 29.2 hPa | 0 mm | 0.45 m/s, 168° | - | - |
| 1787856929 | 20.56° C | 75% | 29.2 hPa | 0 mm | 0.89 m/s, 178° | - | - |
| 1787856629 | 20.56° C | 75% | 29.2 hPa | 0 mm | 1.34 m/s, 184° | - | - |
| 1787856328 | 20.56° C | 76% | 29.2 hPa | 0 mm | 1.34 m/s, 191° | - | - |
| 1787856027 | 20.56° C | 76% | 29.2 hPa | 0 mm | 1.34 m/s, 180° | - | - |
| 1787855727 | 20.56° C | 76% | 29.2 hPa | 0 mm | 1.34 m/s, 183° | - | - |
* Rain latest hour (hover to see other rain measurements)
** Current wind speed in m/s (hover to see current wind gust speed)